Weather History for Jonesville, VA

Change the Weather History Date:

Wednesday, July 31, 2013

  Actual Average (KLOZ) Record (KLOZ)
Temperature  
Mean Temperature 65 °F 76 °F  
Max Temperature 68 °F 86 °F 101 °F (1999)
Min Temperature 62 °F 66 °F 54 °F (1965)
Degree Days  
Heating Degree Days 0 0  
Month to date heating degree days 0  
Since 1 June heating degree days 9  
Since 1 July heating degree days 0  
Cooling Degree Days 0 11  
Month to date cooling degree days 350  
Growing Degree Days 15 (Base 50)    
Moisture  
Dew Point 66 °F    
Average Humidity 99    
Maximum Humidity 100    
Minimum Humidity 88    
Precipitation  
Precipitation 0.11 in 0.12 in 1.64 in (2003)
Month to date precipitation 4.04  
Sea Level Pressure  
Sea Level Pressure 30.14 in    
Wind  
Wind Speed 0 mph (ENE)    
Max Wind Speed 5 mph    
Max Gust Speed -    
Visibility 7 miles    
Events Rain    
T = Trace of Precipitation, MM = Missing Value Source: NWS Daily Summary

Daily Weather History Graph

Daily Weather History Graph

Search for Another Location

Airport:

Trip Planner

Search our weather history database for the weather conditions in past years. The results will help you decide how hot, cold, wet, or windy it might be!

Date:

Astronomy

Jul. 31, 2013 Rise Set
Actual Time 6:38 AM EDT 8:39 PM EDT
Civil Twilight 6:09 AM EDT 9:08 PM EDT
Nautical Twilight 5:34 AM EDT 9:43 PM EDT
Astronomical Twilight 4:57 AM EDT 10:20 PM EDT
Moon 1:32 AM EDT (7/31) 3:54 PM EDT (7/31)
Length of Visible Light 14h 58m
Length of Day
14h 01m
Waning Crescent, 32% of the Moon is Illuminated
Jul 31
Waning Crescent
Aug 6
New
Aug 14
First Quarter
Aug 20
Full
Aug 28
Last Quarter

Hourly Weather History & Observations

Time (EDT) Temp. Dew Point Humidity Pressure Visibility Wind Dir Wind Speed Gust Speed Precip Events Conditions
12:15 AM 66.2 °F 66.2 °F 100% 30.25 in 6.0 mi Calm Calm - N/A Rain Light Rain
12:35 AM 66.2 °F 66.2 °F 100% 30.24 in 4.0 mi Calm Calm - 0.01 in Rain Light Rain
12:55 AM 66.2 °F 66.2 °F 100% 30.24 in 5.0 mi Calm Calm - 0.02 in Rain Light Rain
1:15 AM 66.2 °F 66.2 °F 100% 30.24 in 5.0 mi Calm Calm - N/A Rain Light Rain
1:35 AM 66.2 °F 66.2 °F 100% 30.23 in 7.0 mi Calm Calm - 0.01 in Rain Light Rain
1:55 AM 64.4 °F 64.4 °F 100% 30.23 in 5.0 mi Calm Calm - 0.02 in Rain Light Rain
2:35 AM 64.4 °F 64.4 °F 100% 30.21 in 7.0 mi Calm Calm - 0.01 in Rain Light Rain
2:55 AM 64.4 °F 64.4 °F 100% 30.20 in 9.0 mi Calm Calm - 0.01 in Rain Light Rain
3:15 AM 64.4 °F 62.6 °F 94% 30.20 in 10.0 mi Calm Calm - N/A Rain Light Rain
3:35 AM 62.6 °F 62.6 °F 100% 30.19 in 10.0 mi Calm Calm - N/A   Unknown
3:55 AM 64.4 °F 64.4 °F 100% 30.19 in 10.0 mi Calm Calm - N/A   Unknown
4:15 AM 62.6 °F 62.6 °F 100% 30.19 in 10.0 mi Calm Calm - N/A Rain Light Rain
4:35 AM 62.6 °F 62.6 °F 100% 30.18 in 8.0 mi Calm Calm - N/A Rain Light Rain
4:55 AM 62.6 °F 62.6 °F 100% 30.19 in 8.0 mi Calm Calm - 0.01 in Rain Light Rain
5:15 AM 62.6 °F 62.6 °F 100% 30.18 in 10.0 mi Calm Calm - N/A   Unknown
5:35 AM 62.6 °F 62.6 °F 100% 30.19 in 10.0 mi Calm Calm - N/A   Unknown
5:55 AM 62.6 °F 62.6 °F 100% 30.19 in 8.0 mi Calm Calm - N/A Rain Light Rain
6:15 AM 62.6 °F 62.6 °F 100% 30.20 in 10.0 mi Calm Calm - N/A   Unknown
6:35 AM 62.6 °F 62.6 °F 100% 30.21 in 10.0 mi Calm Calm - N/A   Unknown
6:55 AM 62.6 °F 62.6 °F 100% 30.20 in 10.0 mi Calm Calm - N/A   Overcast
7:15 AM 62.6 °F 62.6 °F 100% 30.20 in 7.0 mi Calm Calm - N/A Rain Light Rain
7:35 AM 62.6 °F 62.6 °F 100% 30.20 in 5.0 mi Calm Calm - N/A Rain Light Rain
7:55 AM 62.6 °F 62.6 °F 100% 30.20 in 6.0 mi Calm Calm - N/A Rain Light Rain
8:15 AM 64.4 °F 64.4 °F 100% 30.19 in 8.0 mi Calm Calm - N/A   Overcast
8:35 AM 64.4 °F 64.4 °F 100% 30.19 in 9.0 mi Calm Calm - N/A   Overcast
8:55 AM 64.4 °F 64.4 °F 100% 30.18 in 10.0 mi Calm Calm - N/A   Overcast
9:15 AM 64.4 °F 64.4 °F 100% 30.18 in 10.0 mi Calm Calm - N/A   Mostly Cloudy
9:35 AM 64.4 °F 64.4 °F 100% 30.19 in 10.0 mi Calm Calm - N/A   Overcast
9:55 AM 66.2 °F 64.4 °F 94% 30.18 in 10.0 mi Calm Calm - N/A   Overcast
10:15 AM 66.2 °F 64.4 °F 94% 30.19 in 10.0 mi Calm Calm - N/A   Overcast
10:35 AM 66.2 °F 64.4 °F 94% 30.18 in 9.0 mi Calm Calm - N/A   Overcast
10:55 AM 66.2 °F 64.4 °F 94% 30.18 in 2.0 mi Calm Calm - N/A Rain Light Rain
11:15 AM 66.2 °F 66.2 °F 100% 30.17 in 2.5 mi Calm Calm - N/A   Mostly Cloudy
11:35 AM 66.2 °F 64.4 °F 94% 30.17 in 9.0 mi Calm Calm - N/A   Mostly Cloudy
11:55 AM 68.0 °F 66.2 °F 94% 30.16 in 10.0 mi Calm Calm - N/A   Mostly Cloudy
12:15 PM 68.0 °F 66.2 °F 94% 30.16 in 10.0 mi Calm Calm - N/A   Mostly Cloudy
12:35 PM 68.0 °F 66.2 °F 94% 30.15 in 10.0 mi Calm Calm - N/A   Scattered Clouds
12:55 PM 68.0 °F 64.4 °F 88% 30.15 in 10.0 mi Calm Calm - N/A   Mostly Cloudy
1:15 PM 68.0 °F 66.2 °F 94% 30.14 in 10.0 mi Calm Calm - N/A   Overcast
1:35 PM 68.0 °F 66.2 °F 94% 30.14 in 10.0 mi Calm Calm - N/A   Mostly Cloudy
1:55 PM 68.0 °F 68.0 °F 100% 30.13 in 10.0 mi Calm Calm - N/A   Mostly Cloudy
2:15 PM 68.0 °F 66.2 °F 94% 30.13 in 2.0 mi Calm Calm - 0.01 in Rain Light Rain
2:35 PM 68.0 °F 66.2 °F 94% 30.12 in 4.0 mi Calm Calm - 0.04 in Rain Light Rain
2:55 PM 68.0 °F 68.0 °F 100% 30.11 in 7.0 mi Calm Calm - 0.04 in Rain Light Rain
3:15 PM 68.0 °F 68.0 °F 100% 30.11 in 10.0 mi Calm Calm - N/A   Overcast
3:35 PM 68.0 °F 68.0 °F 100% 30.10 in 10.0 mi East 4.6 mph - N/A   Overcast
3:55 PM 68.0 °F 68.0 °F 100% 30.10 in 2.5 mi Calm Calm - N/A Rain Light Rain
4:15 PM 68.0 °F 68.0 °F 100% 30.09 in 3.0 mi ENE 4.6 mph - 0.01 in Rain Light Rain
4:35 PM 68.0 °F 68.0 °F 100% 30.08 in 4.0 mi Calm Calm - 0.01 in Rain Light Rain
4:55 PM 68.0 °F 68.0 °F 100% 30.07 in 7.0 mi Calm Calm - 0.01 in Rain Light Rain
5:15 PM 68.0 °F 68.0 °F 100% 30.07 in 8.0 mi Calm Calm - N/A   Mostly Cloudy
5:35 PM 68.0 °F 68.0 °F 100% 30.06 in 5.0 mi Calm Calm - N/A Rain Light Rain
5:55 PM 68.0 °F 68.0 °F 100% 30.06 in 7.0 mi Calm Calm - N/A Rain Light Rain
6:15 PM 68.0 °F 68.0 °F 100% 30.05 in 9.0 mi ENE 3.5 mph - N/A   Overcast
6:35 PM 68.0 °F 68.0 °F 100% 30.04 in 10.0 mi Calm Calm - N/A   Overcast
6:55 PM 68.0 °F 68.0 °F 100% 30.04 in 1.5 mi Calm Calm - N/A Rain Light Rain
7:15 PM 68.0 °F 68.0 °F 100% 30.04 in 5.0 mi Calm Calm - N/A   Scattered Clouds
7:35 PM 68.0 °F 68.0 °F 100% 30.04 in 1.5 mi Calm Calm - N/A   Scattered Clouds
7:55 PM 68.0 °F 68.0 °F 100% 30.04 in 1.0 mi Calm Calm - N/A Rain Light Rain
8:15 PM 68.0 °F 68.0 °F 100% 30.04 in 2.0 mi Calm Calm - N/A Rain Light Rain
8:35 PM 68.0 °F 68.0 °F 100% 30.05 in 3.0 mi Calm Calm - N/A   Mist
8:55 PM 68.0 °F 68.0 °F 100% 30.06 in 4.0 mi Calm Calm - N/A   Mist
9:15 PM 68.0 °F 68.0 °F 100% 30.06 in 5.0 mi Calm Calm - N/A   Mist
9:35 PM 68.0 °F 68.0 °F 100% 30.06 in 4.0 mi Calm Calm - N/A   Mist
9:55 PM 68.0 °F 68.0 °F 100% 30.06 in 5.0 mi Calm Calm - N/A   Mist
10:15 PM 68.0 °F 68.0 °F 100% 30.06 in 5.0 mi Calm Calm - N/A   Mist
10:35 PM 68.0 °F 68.0 °F 100% 30.06 in 5.0 mi Calm Calm - N/A   Mist
10:55 PM 68.0 °F 68.0 °F 100% 30.05 in 6.0 mi Calm Calm - N/A   Mist
11:15 PM 68.0 °F 68.0 °F 100% 30.05 in 6.0 mi Calm Calm - N/A   Mist
11:35 PM 68.0 °F 68.0 °F 100% 30.05 in 6.0 mi Calm Calm - N/A   Mist
11:55 PM 68.0 °F 68.0 °F 100% 30.04 in 6.0 mi Calm Calm - N/A   Mist